{"data":{"norad_id":31113,"epoch":"2026-05-25T05:03:45.576288Z","epoch_age_seconds":56887,"freshness":"FRESH","line1":"1 31113U 07010A   26145.21094417  .00000088  00000+0  49427-4 0  9998","line2":"2 31113  98.3486 127.9488 0012204 269.9762  90.0023 14.31020453997347","mean_motion":14.31020453,"eccentricity":0.0012204,"inclination_deg":98.3486,"raan_deg":127.9488,"arg_perigee_deg":269.9762,"mean_anomaly_deg":90.0023,"bstar":4.9427e-5,"rev_number":99734,"period_min":100.62749256876,"perigee_km":779.57594491918,"apogee_km":797.06783778119,"semimajor_km":7166.4588913502,"source":"CELESTRAK","updated_at":"2026-05-25T13:38:12.744175Z"}}